Tracking 28794 objects as of 19-Apr-2024
HD Live streaming from Space Station
objects crossing your sky now

DELTA 1 DEB

Track DELTA 1 DEB now!
10-day predictions


NORAD ID: 42079
Int'l Code: 1968-114F
Perigee: 1,321.0 km
Apogee: 1,826.0 km
Inclination: 101.9 °
Period: 117.5 minutes
Semi major axis: 7944 km
RCS: Unknown
Launch date: December 15, 1968
Source: United States (US)
Launch site: AIR FORCE WESTERN TEST RANGE (AFWTR)

Note: This is SATELLITE DEBRIS
Your satellite tracking list
Your tracking list is empty




NASA's NSSDC Master Catalog

Two Line Element Set (TLE):
1 42079U 68114F   24110.45153378  .00000180  00000-0  16824-2 0  9998
2 42079 101.9340 100.9231 0317846  72.7890  77.6735 12.26029728465762
Source of the keplerian elements: AFSPC